Volver al catálogo

STARLINK-37577

ActivoComunicacionesVLEO
NORAD 69452·PAYLOAD·🇺🇸 United States

Lanzado Jun 8, 2026 desde Cape Canaveral Space Force Station

Loading…

Próximos Pases (próximas 24 horas)

TLE

ActualizadoSource: CelesTrak SupGP

Época: Sep 14, 2026, 23:14 UTC

1 69452C 26127K   26257.96854167 -.00028842  00000+0 -85185-3 0  2574
2 69452  53.1583 191.8864 0001387  98.8830  80.0787 15.34415474    14

Sigue STARLINK-37577 en tiempo real con AllMySat

Download on the App Store